OCN41R EDDF-EDDB

Flight info

Callsign OCN41R
Flight time 0h 44m
Altitude 31000
Route TOBAK3W TOBAK N858 SWALM T201 TAMEB T278 KLF KLF1R
Aircraft A333/H-SDE3GHIJ2J3J5M1RVWXY/LB2D1

Departure

Time 2026-04-18 09:41
Airport Frankfurt Main Airport (EDDF)

Arrival

Time 2026-04-18 10:26
Airport Berlin Brandenburg Airport (EDDB)
Time Latitude Longitude Altitude Speed Heading
2026-04-18 08:57 50.04774 8.56496 375 ft 0 kts 340°
2026-04-18 09:25 50.04756 8.56506 375 ft 3 kts 340°
2026-04-18 09:26 50.04744 8.56513 375 ft 1 kts 339°
2026-04-18 09:26 50.04734 8.56519 375 ft 1 kts 333°
2026-04-18 09:26 50.04727 8.56525 375 ft 1 kts 321°
2026-04-18 09:26 50.04721 8.56534 375 ft 1 kts 305°
2026-04-18 09:27 50.04717 8.56543 375 ft 1 kts 292°
2026-04-18 09:27 50.04715 8.56552 375 ft 1 kts 278°
2026-04-18 09:27 50.04714 8.56562 375 ft 1 kts 266°
2026-04-18 09:27 50.04715 8.56573 375 ft 0 kts 254°
2026-04-18 09:28 50.04716 8.56581 375 ft 0 kts 250°
2026-04-18 09:28 50.04716 8.56582 375 ft 0 kts 250°
2026-04-18 09:28 50.04716 8.56581 375 ft 0 kts 250°
2026-04-18 09:28 50.04705 8.56544 375 ft 8 kts 244°
2026-04-18 09:29 50.04677 8.56459 372 ft 10 kts 244°
2026-04-18 09:29 50.04653 8.56366 370 ft 11 kts 250°
2026-04-18 09:29 50.04647 8.56341 370 ft 0 kts 250°
2026-04-18 09:30 50.04642 8.56322 370 ft 0 kts 245°
2026-04-18 09:31 50.04641 8.56317 370 ft 3 kts 245°
2026-04-18 09:32 50.04624 8.56253 370 ft 11 kts 249°
2026-04-18 09:32 50.04596 8.56129 370 ft 14 kts 250°
2026-04-18 09:32 50.04567 8.56018 370 ft 11 kts 246°
2026-04-18 09:32 50.04516 8.55950 370 ft 10 kts 202°
2026-04-18 09:33 50.04503 8.55943 370 ft 2 kts 197°
2026-04-18 09:33 50.04435 8.55917 368 ft 17 kts 190°
2026-04-18 09:33 50.04311 8.55949 366 ft 21 kts 160°
2026-04-18 09:33 50.04225 8.55928 362 ft 13 kts 201°
2026-04-18 09:34 50.04138 8.55945 359 ft 14 kts 159°
2026-04-18 09:34 50.04113 8.55961 359 ft 9 kts 155°
2026-04-18 09:34 50.04089 8.56123 359 ft 27 kts 71°
2026-04-18 09:34 50.04153 8.56388 363 ft 28 kts 71°
2026-04-18 09:35 50.04215 8.56644 365 ft 26 kts 70°
2026-04-18 09:35 50.04271 8.56883 371 ft 22 kts 70°
2026-04-18 09:35 50.04324 8.57105 373 ft 21 kts 70°
2026-04-18 09:35 50.04371 8.57301 374 ft 20 kts 70°
2026-04-18 09:36 50.04418 8.57493 371 ft 21 kts 69°
2026-04-18 09:36 50.04463 8.57684 373 ft 19 kts 70°
2026-04-18 09:36 50.04503 8.57854 377 ft 16 kts 70°
2026-04-18 09:36 50.04538 8.58000 379 ft 14 kts 70°
2026-04-18 09:37 50.04570 8.58134 380 ft 13 kts 70°
2026-04-18 09:37 50.04599 8.58253 381 ft 12 kts 69°
2026-04-18 09:37 50.04626 8.58366 381 ft 12 kts 70°
2026-04-18 09:37 50.04654 8.58492 376 ft 11 kts 80°
2026-04-18 09:38 50.04629 8.58559 373 ft 0 kts 146°
2026-04-18 09:39 50.04590 8.58591 371 ft 13 kts 156°
2026-04-18 09:39 50.04499 8.58597 369 ft 15 kts 224°
2026-04-18 09:39 50.04461 8.58479 374 ft 12 kts 249°
2026-04-18 09:40 50.04451 8.58440 375 ft 0 kts 250°
2026-04-18 09:40 50.04415 8.58286 378 ft 49 kts 249°
2026-04-18 09:40 50.04221 8.57470 368 ft 125 kts 250°
2026-04-18 09:40 50.03885 8.56054 360 ft 184 kts 250°
2026-04-18 09:41 50.03437 8.54158 659 ft 216 kts 251°
2026-04-18 09:41 50.02927 8.52071 1440 ft 211 kts 249°
2026-04-18 09:41 50.02706 8.49922 2234 ft 209 kts 276°
2026-04-18 09:41 50.02906 8.47636 2791 ft 221 kts 277°
2026-04-18 09:42 50.03092 8.45216 3336 ft 234 kts 277°
2026-04-18 09:42 50.03407 8.42698 3859 ft 242 kts 292°
2026-04-18 09:42 50.04417 8.40629 4378 ft 257 kts 321°
2026-04-18 09:42 50.05862 8.39085 4932 ft 271 kts 323°
2026-04-18 09:43 50.07293 8.37419 5426 ft 273 kts 322°
2026-04-18 09:43 50.08762 8.35688 5914 ft 273 kts 322°
2026-04-18 09:43 50.10208 8.33990 6389 ft 275 kts 323°
2026-04-18 09:43 50.11910 8.32890 6864 ft 279 kts 349°
2026-04-18 09:44 50.13728 8.33008 7341 ft 283 kts 14°
2026-04-18 09:44 50.15477 8.33998 7842 ft 286 kts 17°
2026-04-18 09:44 50.17290 8.34895 8331 ft 287 kts 15°
2026-04-18 09:44 50.19148 8.35788 8831 ft 291 kts 15°
2026-04-18 09:45 50.21010 8.36672 9572 ft 299 kts 15°
2026-04-18 09:45 50.22870 8.37554 10522 ft 298 kts 14°
2026-04-18 09:45 50.24749 8.38444 11146 ft 309 kts 14°
2026-04-18 09:45 50.26052 8.39061 11474 ft 320 kts 14°
2026-04-18 09:46 50.28790 8.40476 12083 ft 343 kts 22°
2026-04-18 09:46 50.30659 8.42531 12742 ft 355 kts 41°
2026-04-18 09:46 50.32442 8.45132 13554 ft 359 kts 39°
2026-04-18 09:46 50.34310 8.47724 14401 ft 362 kts 39°
2026-04-18 09:47 50.36169 8.50304 15185 ft 367 kts 39°
2026-04-18 09:47 50.38064 8.52936 15979 ft 370 kts 39°
2026-04-18 09:47 50.39980 8.55574 16668 ft 376 kts 42°
2026-04-18 09:47 50.41460 8.58846 17318 ft 385 kts 62°
2026-04-18 09:48 50.42242 8.62817 18040 ft 390 kts 75°
2026-04-18 09:48 50.43090 8.66842 18705 ft 394 kts 68°
2026-04-18 09:48 50.44040 8.70883 19395 ft 398 kts 68°
2026-04-18 09:48 50.44997 8.74909 20076 ft 401 kts 68°
2026-04-18 09:49 50.45966 8.78990 20711 ft 406 kts 69°
2026-04-18 09:49 50.46962 8.83198 21354 ft 410 kts 68°
2026-04-18 09:49 50.47944 8.87340 21984 ft 413 kts 68°
2026-04-18 09:49 50.48938 8.91550 22582 ft 417 kts 69°
2026-04-18 09:50 50.49951 8.95849 23147 ft 421 kts 69°
2026-04-18 09:50 50.50964 9.00149 23726 ft 425 kts 69°
2026-04-18 09:50 50.51980 9.04481 24289 ft 428 kts 69°
2026-04-18 09:50 50.53009 9.08874 24872 ft 431 kts 69°
2026-04-18 09:51 50.54038 9.13276 25426 ft 435 kts 69°
2026-04-18 09:51 50.55058 9.17649 25956 ft 438 kts 69°
2026-04-18 09:51 50.56102 9.22132 26481 ft 442 kts 69°
2026-04-18 09:51 50.57159 9.26681 26991 ft 445 kts 69°
2026-04-18 09:52 50.58199 9.31165 27516 ft 448 kts 69°
2026-04-18 09:52 50.59268 9.35786 28026 ft 452 kts 69°
2026-04-18 09:52 50.60320 9.40344 28514 ft 455 kts 69°
2026-04-18 09:52 50.61394 9.45007 29106 ft 456 kts 69°
2026-04-18 09:53 50.62468 9.49683 29729 ft 456 kts 69°
2026-04-18 09:53 50.63534 9.54327 30402 ft 455 kts 69°
2026-04-18 09:53 50.64610 9.59031 31042 ft 454 kts 69°
2026-04-18 09:53 50.65665 9.63654 31261 ft 452 kts 69°
2026-04-18 09:54 50.67777 9.72929 31131 ft 448 kts 69°
2026-04-18 09:54 50.69858 9.82117 31145 ft 449 kts 69°
2026-04-18 09:55 50.71950 9.91390 31162 ft 449 kts 69°
2026-04-18 09:55 50.74018 10.00598 31154 ft 449 kts 69°
2026-04-18 09:56 50.76083 10.09826 31156 ft 449 kts 69°
2026-04-18 09:56 50.78142 10.19081 31163 ft 448 kts 69°
2026-04-18 09:57 50.80210 10.28407 31167 ft 448 kts 69°
2026-04-18 09:57 50.82251 10.37659 31163 ft 448 kts 69°
2026-04-18 09:58 50.84280 10.46894 31169 ft 448 kts 69°
2026-04-18 09:58 50.86321 10.56228 31169 ft 448 kts 69°
2026-04-18 09:59 50.88338 10.65493 31166 ft 448 kts 70°
2026-04-18 10:00 50.91363 10.79465 31176 ft 449 kts 70°
2026-04-18 10:00 50.93375 10.88813 31174 ft 448 kts 70°
2026-04-18 10:01 50.95361 10.98082 31175 ft 448 kts 70°
2026-04-18 10:01 50.97352 11.07413 31179 ft 447 kts 70°
2026-04-18 10:02 50.99337 11.16763 31177 ft 446 kts 70°
2026-04-18 10:02 51.01299 11.26049 31175 ft 447 kts 70°
2026-04-18 10:03 51.03267 11.35402 31173 ft 448 kts 70°
2026-04-18 10:03 51.05218 11.44721 31181 ft 447 kts 70°
2026-04-18 10:04 51.07657 11.53706 31177 ft 443 kts 58°
2026-04-18 10:04 51.10552 11.62329 31171 ft 445 kts 60°
2026-04-18 10:05 51.13399 11.71028 31163 ft 444 kts 60°
2026-04-18 10:05 51.16219 11.79705 31154 ft 443 kts 60°
2026-04-18 10:06 51.19044 11.88426 31144 ft 442 kts 60°
2026-04-18 10:06 51.22118 11.96754 31121 ft 438 kts 46°
2026-04-18 10:06 51.24257 12.00186 30967 ft 438 kts 42°
2026-04-18 10:07 51.26385 12.03655 30730 ft 437 kts 43°
2026-04-18 10:07 51.28469 12.07123 30493 ft 437 kts 44°
2026-04-18 10:07 51.30555 12.10622 30252 ft 437 kts 44°
2026-04-18 10:07 51.32666 12.14178 30004 ft 437 kts 44°
2026-04-18 10:08 51.34774 12.17590 29392 ft 438 kts 38°
2026-04-18 10:08 51.37268 12.20318 28331 ft 443 kts 29°
2026-04-18 10:08 51.39862 12.22973 27352 ft 446 kts 30°
2026-04-18 10:08 51.42437 12.25624 26963 ft 436 kts 30°
2026-04-18 10:09 51.44956 12.28222 26619 ft 425 kts 30°
2026-04-18 10:09 51.47409 12.30752 26087 ft 420 kts 30°
2026-04-18 10:09 51.49853 12.33276 25457 ft 417 kts 30°
2026-04-18 10:09 51.52269 12.35776 24840 ft 414 kts 31°
2026-04-18 10:10 51.54676 12.38267 24236 ft 410 kts 31°
2026-04-18 10:10 51.57040 12.40719 23604 ft 406 kts 31°
2026-04-18 10:10 51.59368 12.43137 22940 ft 402 kts 31°
2026-04-18 10:10 51.61675 12.45537 22288 ft 399 kts 31°
2026-04-18 10:11 51.63906 12.47859 21660 ft 396 kts 31°
2026-04-18 10:11 51.66082 12.50128 21058 ft 392 kts 31°
2026-04-18 10:11 51.68311 12.52453 20443 ft 389 kts 31°
2026-04-18 10:11 51.70527 12.54771 19822 ft 373 kts 31°
2026-04-18 10:12 51.72651 12.56990 18756 ft 371 kts 30°
2026-04-18 10:12 51.74793 12.59231 17719 ft 364 kts 31°
2026-04-18 10:12 51.76872 12.61410 16706 ft 353 kts 31°
2026-04-18 10:12 51.78860 12.63498 16273 ft 338 kts 31°
2026-04-18 10:13 51.80848 12.65583 15512 ft 346 kts 31°
2026-04-18 10:13 51.82848 12.67686 14770 ft 346 kts 31°
2026-04-18 10:13 51.84821 12.69766 13786 ft 339 kts 31°
2026-04-18 10:13 51.86721 12.71771 13253 ft 318 kts 31°
2026-04-18 10:14 51.88504 12.73655 12931 ft 297 kts 31°
2026-04-18 10:14 51.90179 12.75424 12631 ft 279 kts 31°
2026-04-18 10:14 51.91782 12.77117 12433 ft 270 kts 31°
2026-04-18 10:14 51.93335 12.78754 11792 ft 275 kts 31°
2026-04-18 10:15 51.94973 12.80486 10973 ft 284 kts 31°
2026-04-18 10:15 51.96594 12.82205 10152 ft 277 kts 31°
2026-04-18 10:15 51.98121 12.83829 10054 ft 250 kts 30°
2026-04-18 10:15 51.99502 12.85297 10049 ft 234 kts 30°
2026-04-18 10:16 52.00902 12.86774 9677 ft 245 kts 30°
2026-04-18 10:16 52.02326 12.88284 9062 ft 253 kts 31°
2026-04-18 10:16 52.03829 12.89881 8269 ft 264 kts 31°
2026-04-18 10:16 52.05360 12.91514 7486 ft 268 kts 32°
2026-04-18 10:17 52.06880 12.93138 6958 ft 250 kts 32°
2026-04-18 10:17 52.08293 12.94650 6705 ft 239 kts 32°
2026-04-18 10:17 52.09658 12.96104 6430 ft 240 kts 32°
2026-04-18 10:17 52.11037 12.97578 6162 ft 236 kts 32°
2026-04-18 10:18 52.12414 12.99048 5887 ft 234 kts 31°
2026-04-18 10:18 52.13755 13.00481 5629 ft 235 kts 31°
2026-04-18 10:18 52.15131 13.01948 5374 ft 241 kts 32°
2026-04-18 10:18 52.16520 13.03439 5098 ft 239 kts 32°
2026-04-18 10:19 52.17927 13.04949 4922 ft 238 kts 32°
2026-04-18 10:19 52.19284 13.06407 4911 ft 229 kts 32°
2026-04-18 10:19 52.20625 13.07845 4955 ft 235 kts 32°
2026-04-18 10:19 52.22025 13.09346 4766 ft 252 kts 32°
2026-04-18 10:20 52.23502 13.10921 4537 ft 250 kts 32°
2026-04-18 10:20 52.24929 13.12445 4322 ft 237 kts 32°
2026-04-18 10:20 52.26260 13.13860 4153 ft 225 kts 33°
2026-04-18 10:20 52.27237 13.15737 3958 ft 215 kts 68°
2026-04-18 10:21 52.27702 13.18012 3693 ft 210 kts 70°
2026-04-18 10:21 52.28198 13.20206 3410 ft 207 kts 69°
2026-04-18 10:21 52.28706 13.22390 3134 ft 201 kts 69°
2026-04-18 10:21 52.29185 13.24423 3011 ft 187 kts 69°
2026-04-18 10:22 52.29631 13.26315 2860 ft 168 kts 69°
2026-04-18 10:22 52.30049 13.28058 2605 ft 163 kts 69°
2026-04-18 10:22 52.30457 13.29742 2353 ft 153 kts 69°
2026-04-18 10:22 52.30832 13.31303 2117 ft 143 kts 69°
2026-04-18 10:23 52.31184 13.32763 1921 ft 139 kts 69°
2026-04-18 10:23 52.31422 13.33749 1801 ft 137 kts 69°
2026-04-18 10:23 52.31884 13.35675 1573 ft 137 kts 69°
2026-04-18 10:23 52.32230 13.37125 1397 ft 136 kts 69°
2026-04-18 10:24 52.32558 13.38509 1216 ft 132 kts 69°
2026-04-18 10:24 52.32882 13.39863 1044 ft 132 kts 69°
2026-04-18 10:24 52.33103 13.40781 940 ft 135 kts 69°
2026-04-18 10:24 52.33550 13.42654 726 ft 138 kts 69°
2026-04-18 10:25 52.33882 13.44087 513 ft 134 kts 70°
2026-04-18 10:25 52.34220 13.45489 342 ft 137 kts 69°
2026-04-18 10:25 52.34563 13.46924 199 ft 136 kts 69°
2026-04-18 10:25 52.34861 13.48181 148 ft 89 kts 69°
2026-04-18 10:26 52.35016 13.48832 151 ft 37 kts 68°
2026-04-18 10:26 52.35054 13.48990 149 ft 0 kts 67°
2026-04-18 10:26 52.35102 13.49143 149 ft 36 kts 57°
2026-04-18 10:26 52.35255 13.49394 151 ft 13 kts 39°
2026-04-18 10:27 52.35274 13.49419 151 ft 0 kts 39°
2026-04-18 10:27 52.35274 13.49420 151 ft 1 kts 39°
2026-04-18 10:27 52.35287 13.49436 151 ft 3 kts 37°
2026-04-18 10:27 52.35290 13.49440 151 ft 0 kts 37°
2026-04-18 10:28 52.35304 13.49457 151 ft 8 kts 37°
2026-04-18 10:28 52.35375 13.49548 152 ft 17 kts 38°
2026-04-18 10:28 52.35458 13.49698 153 ft 19 kts 64°
2026-04-18 10:29 52.35508 13.49913 151 ft 21 kts 69°
2026-04-18 10:29 52.35561 13.50135 148 ft 22 kts 67°
2026-04-18 10:29 52.35622 13.50388 148 ft 25 kts 68°
2026-04-18 10:29 52.35686 13.50660 144 ft 27 kts 68°
2026-04-18 10:30 52.35747 13.50817 144 ft 13 kts 12°
2026-04-18 10:30 52.35826 13.50793 144 ft 13 kts 335°
2026-04-18 10:30 52.35908 13.50737 144 ft 14 kts 339°
2026-04-18 10:30 52.35999 13.50682 144 ft 13 kts 337°
2026-04-18 10:31 52.36035 13.50660 144 ft 6 kts 349°
2026-04-18 10:31 52.36066 13.50704 144 ft 6 kts 60°
2026-04-18 10:31 52.36083 13.50760 145 ft 2 kts 66°
2026-04-18 10:31 52.36091 13.50794 145 ft 0 kts 69°
2026-04-18 10:33 52.36091 13.50795 145 ft 0 kts 69°